KE9LZ Weather Reports


time (UTC)temp
F
wind
direction
speed
knots
gust
knots
rain 1hr
in
rain 24hr
in
rain mn
in
humidity
%
barometer
mb
20260509055003 54 115 3.5 6.1 0.00 0.00 0.00 53 1005.1
20260509054003 55 114 3.5 7.0 0.00 0.00 0.00 51 1005.3
20260509053004 55 131 3.5 7.8 0.00 0.00 0.00 51 1005.2
20260509052003 55 88 2.6 12.2 0.00 0.00 0.00 51 1005.3
20260509051003 55 87 3.5 4.3 0.00 0.00 0.00 53 1005.4
20260509050003 55 54 1.7 5.2 0.00 0.00 0.00 51 1005.6
20260509045004 55 139 2.6 6.1 0.00 0.00 0.00 52 1005.6
20260509044003 54 112 3.5 5.2 0.00 0.00 0.00 56 1005.8
20260509043003 55 212 3.5 6.1 0.00 0.00 0.00 54 1005.7
20260509041003 55 61 2.6 4.3 0.00 0.00 0.00 50 1006.1
20260509040004 56 105 0.9 5.2 0.00 0.00 0.00 49 1006.4
20260509034004 54 199 1.7 5.2 0.00 0.00 0.00 47 1006.5
20260509033003 54 98 1.7 4.3 0.00 0.00 0.00 47 1006.6
20260509032003 54 119 2.6 4.3 0.00 0.00 0.00 47 1006.6
20260509031004 54 121 2.6 5.2 0.00 0.00 0.00 47 1006.5
20260509030004 54 134 2.6 5.2 0.00 0.00 0.00 46 1006.6
20260509025003 55 117 2.6 8.7 0.00 0.00 0.00 45 1006.7
20260509024003 56 123 5.2 7.8 0.00 0.00 0.00 44 1006.8
20260509023003 57 100 3.5 5.2 0.00 0.00 0.00 45 1006.7
20260509022003 58 115 2.6 6.1 0.00 0.00 0.00 43 1006.6
20260509021003 60 102 2.6 4.3 0.00 0.00 0.00 40 1006.7
20260509020003 62 115 2.6 4.3 0.00 0.00 0.00 36 1006.7
20260509015004 63 13 0.9 5.2 0.00 0.00 0.00 34 1007.1
20260509014004 64 199 2.6 13.9 0.00 0.00 0.00 32 1007.3
20260509012003 64 303 3.5 8.7 0.00 0.00 0.00 32 1007.1
20260509005004 63 296 1.7 5.2 0.00 0.00 0.00 33 1007.2
20260509004003 64 171 2.6 5.2 0.00 0.00 0.00 32 1007.1
20260509003003 64 171 2.6 8.7 0.00 0.00 0.00 30 1006.8
20260509002003 64 210 0.9 4.3 0.00 0.00 0.00 32 1007.0
20260509001003 64 151 2.6 5.2 0.00 0.00 0.00 31 1007.1
20260509000003 65 157 1.7 4.3 0.00 0.00 0.00 30 1007.1
20260508235003 65 155 2.6 5.2 0.00 0.00 0.00 29 1007.3
20260508234003 65 195 3.5 7.8 0.00 0.00 0.00 27 1007.3
20260508233003 66 217 0.9 5.2 0.00 0.00 0.00 29 1007.3
20260508232003 66 189 2.6 7.0 0.00 0.00 0.00 28 1007.4
20260508231003 66 204 3.5 7.8 0.00 0.00 0.00 27 1007.2
20260508225003 66 211 2.6 13.9 0.00 0.00 0.00 27 1007.5
20260508224004 67 197 4.3 10.4 0.00 0.00 0.00 26 1007.9
20260508223003 67 283 4.3 8.7 0.00 0.00 0.00 27 1008.1
20260508222004 66 234 5.2 11.3 0.00 0.00 0.00 27 1008.0
20260508220003 65 295 2.6 13.9 0.00 0.00 0.00 29 1008.4
20260508215003 65 322 4.3 11.3 0.00 0.00 0.00 29 1008.5
20260508213003 65 270 10.4 14.8 0.00 0.00 0.00 27 1008.4
20260508212003 66 284 5.2 12.2 0.00 0.00 0.00 27 1008.7
20260508211003 65 198 4.3 14.8 0.00 0.00 0.00 27 1008.7
20260508210003 65 218 3.5 8.7 0.00 0.00 0.00 27 1008.6
20260508205003 65 233 5.2 10.4 0.00 0.00 0.00 27 1008.9
20260508204003 65 281 7.0 15.6 0.00 0.00 0.00 26 1009.4
20260508203003 65 288 7.8 15.6 0.00 0.00 0.00 27 1009.4
20260508202003 65 235 7.0 13.9 0.00 0.00 0.00 27 1009.5
20260508200003 65 242 7.0 13.9 0.00 0.00 0.00 27 1009.8
20260508194003 65 232 6.1 12.2 0.00 0.00 0.00 28 1010.2
20260508193003 64 246 4.3 13.9 0.00 0.00 0.00 28 1010.2
20260508192003 65 270 7.8 15.6 0.00 0.00 0.00 28 1010.5
20260508191004 65 268 8.7 19.1 0.00 0.00 0.00 28 1010.6
20260508190003 66 295 9.6 15.6 0.00 0.00 0.00 27 1010.5
20260508185004 64 256 6.1 17.4 0.00 0.00 0.00 28 1010.8
20260508183003 64 169 4.3 10.4 0.00 0.00 0.00 30 1011.2
20260508182003 64 231 4.3 12.2 0.00 0.00 0.00 30 1011.5
20260508181003 64 227 6.1 13.9 0.00 0.00 0.00 30 1011.4
20260508180003 63 210 5.2 12.2 0.00 0.00 0.00 31 1011.5
20260508175003 63 272 6.1 12.2 0.00 0.00 0.00 31 1011.8
20260508174003 63 209 7.0 11.3 0.00 0.00 0.00 30 1012.1
20260508173003 62 203 6.1 13.9 0.00 0.00 0.00 30 1012.2
20260508172004 63 270 6.1 13.0 0.00 0.00 0.00 31 1012.4
20260508171003 62 290 8.7 14.8 0.00 0.00 0.00 31 1012.7
20260508170003 61 202 6.1 17.4 0.00 0.00 0.00 35 1012.7
20260508165004 62 234 5.2 14.8 0.00 0.00 0.00 34 1012.9
20260508163004 61 203 7.8 15.6 0.00 0.00 0.00 37 1013.4
20260508162004 61 197 9.6 13.9 0.00 0.00 0.00 37 1013.5
20260508161003 61 213 7.0 13.9 0.00 0.00 0.00 36 1013.4
20260508160004 61 225 6.1 12.2 0.00 0.00 0.00 36 1013.5
20260508154003 59 258 4.3 15.6 0.00 0.00 0.00 36 1013.8
20260508153004 59 240 7.8 13.9 0.00 0.00 0.00 37 1014.0
20260508152004 58 230 2.6 12.2 0.00 0.00 0.00 41 1014.0
20260508151003 57 220 6.1 13.9 0.00 0.00 0.00 41 1014.3
20260508150004 58 210 5.2 13.9 0.00 0.00 0.00 42 1014.2
20260508145003 57 209 7.8 13.9 0.00 0.00 0.00 44 1014.2
20260508143004 56 194 5.2 10.4 0.00 0.00 0.00 51 1014.4
20260508142003 55 187 5.2 12.2 0.00 0.00 0.00 54 1014.7
20260508141003 54 181 2.6 12.2 0.00 0.00 0.00 57 1014.6
20260508140003 53 201 7.0 12.2 0.00 0.00 0.00 59 1014.7
20260508135003 52 196 6.1 12.2 0.00 0.00 0.00 61 1014.8
20260508133004 51 208 6.1 12.2 0.00 0.00 0.00 63 1014.8
20260508132004 51 203 5.2 12.2 0.00 0.00 0.00 64 1014.8
20260508130004 48 216 5.2 13.0 0.00 0.00 0.00 71 1014.8
20260508124003 46 174 4.3 10.4 0.00 0.00 0.00 74 1014.7
20260508123004 45 193 5.2 10.4 0.00 0.00 0.00 74 1014.7
20260508122004 45 195 4.3 8.7 0.00 0.00 0.00 74 1014.7
20260508121003 44 185 3.5 7.0 0.00 0.00 0.00 75 1014.6
20260508120003 43 189 4.3 8.7 0.00 0.00 0.00 76 1014.8
20260508115003 42 190 7.0 11.3 0.00 0.00 0.00 77 1014.5
20260508114004 41 174 5.2 7.0 0.00 0.00 0.00 77 1014.6
20260508113004 40 192 2.6 8.7 0.00 0.00 0.00 78 1014.8
20260508110004 39 129 4.3 8.7 0.00 0.00 0.00 78 1014.5
20260508105003 38 171 5.2 7.8 0.00 0.00 0.00 77 1014.3
20260508104003 38 163 2.6 7.8 0.00 0.00 0.00 76 1014.3
20260508103003 38 163 2.6 5.2 0.00 0.00 0.00 77 1014.4
20260508101003 38 160 1.7 6.1 0.00 0.00 0.00 77 1014.4
20260508100004 38 166 2.6 5.2 0.00 0.00 0.00 77 1014.5
20260508095004 39 176 2.6 6.1 0.00 0.00 0.00 76 1014.4
20260508093003 40 196 3.5 7.0 0.00 0.00 0.00 75 1014.6
20260508091004 40 175 4.3 7.8 0.00 0.00 0.00 76 1014.4
20260508090004 40 140 3.5 8.7 0.00 0.00 0.00 76 1014.8
20260508085004 39 165 2.6 7.0 0.00 0.00 0.00 77 1014.5
20260508084004 39 161 2.6 5.2 0.00 0.00 0.00 76 1014.6
20260508083003 39 160 2.6 5.2 0.00 0.00 0.00 75 1014.8
20260508080003 40 188 4.3 7.8 0.00 0.00 0.00 73 1014.9
20260508075004 40 172 3.5 7.8 0.00 0.00 0.00 72 1015.1
20260508074003 40 193 4.3 7.0 0.00 0.00 0.00 72 1015.0
20260508073004 40 180 4.3 7.0 0.00 0.00 0.00 71 1015.3
20260508072004 40 166 3.5 7.8 0.00 0.00 0.00 71 1015.1
20260508071003 40 165 4.3 8.7 0.00 0.00 0.00 70 1015.4
20260508070003 40 168 4.3 8.7 0.00 0.00 0.00 70 1015.6
20260508065003 40 155 4.3 7.8 0.00 0.00 0.00 70 1015.4
20260508064004 40 183 5.2 7.8 0.00 0.00 0.00 69 1015.5
20260508063004 40 162 4.3 7.8 0.00 0.00 0.00 69 1015.8
20260508062003 40 182 5.2 8.7 0.00 0.00 0.00 70 1015.7
20260508061004 40 165 4.3 7.0 0.00 0.00 0.00 70 1015.7
20260508060003 40 176 5.2 10.4 0.00 0.00 0.00 69 1015.8